Home   Weather   Warburg   Past weeks

Flag for Germany Past Weather in Warburg, North Rhine-Westphalia, Germany — Yesterday and Last 2 Weeks

45 °F

Partly cloudy.

Feels Like: 45 °F
Forecast: 40 / 54 °F
Wind: 1 mph from North

Location: Paderborn / Lippstadt

Current Time: Oct 26, 2016 at 6:11:11 AM

Latest Report: Oct 26, 2016 at 5:20 AM

Visibility: 5 mi

Pressure: 30.33 "Hg

Humidity: 100%

Dew Point: 45 °F

Location of WarburgLocation

Past Weather in Warburg — Graph


Warburg Temperature Yesterday

Maximum temperature yesterday: 50 °F (at 4:50 AM)
Minimum temperature yesterday: 46 °F (at 12:20 PM)
Average temperature yesterday: 48 °F

High & Low Weather Summary for the Past Weeks

High66 °F (Oct 16, 2:50 PM)100% (Oct 21, 5:20 AM)30.33 "Hg (Oct 21, 5:20 AM)
Low34 °F (Oct 11, 5:20 AM)49% (Oct 16, 2:50 PM)29.68 "Hg (Oct 15, 1:50 AM)
Average47 °F83%30.00 "Hg
* Reported Oct 11 4:20 AM — Oct 26 4:50 AM, Warburg, Weather by CustomWeather, © 2016

Note: Actual official high and low records may vary slightly from our data, if they occured in-between our weather recording intervals... More about our weather records


Warburg Weather History for the Previous 24 Hours

Scroll right to see more
Time TempWeatherWind HumidityBarometerVisibility
4:50 AM
Wed, Oct 26
46 °FPartly cloudy.2 mph93%30.33 "Hg4 mi
4:20 AM46 °FFog.1 mph93%30.33 "Hg3 mi
3:50 AM46 °FFog.1 mph93%30.33 "Hg3 mi
3:20 AM46 °FFog.1 mph93%30.33 "Hg2 mi
2:20 AM46 °FPassing clouds.1 mph93%30.33 "Hg4 mi
1:50 AM46 °FFog.1 mph93%30.33 "Hg1 mi
1:20 AM46 °FFog.1 mph93%30.33 "Hg1 mi
12:50 AM46 °FFog.1 mph93%30.33 "Hg1 mi
12:20 AM46 °FFog.1 mph93%30.33 "Hg1 mi
11:50 PM
Tue, Oct 25
46 °FFog.1 mph93%30.33 "Hg1 mi
11:20 PM46 °FFog.1 mph93%30.33 "Hg3 mi
10:50 PM46 °FFog.1 mph93%30.30 "Hg2 mi
10:20 PM46 °FFog.1 mph93%30.30 "Hg1 mi
9:50 PM46 °FFog.1 mph93%30.30 "Hg1 mi
9:20 PM46 °FFog.1 mph93%30.30 "Hg1 mi
8:50 PM46 °FFog.1 mph93%30.30 "Hg1 mi
8:20 PM46 °FFog.1 mph93%30.27 "Hg1 mi
7:50 PM46 °FFog.3 mph93%30.27 "Hg1 mi
7:20 PM46 °FFog.2 mph93%30.27 "Hg1 mi
6:50 PM46 °FFog.3 mph93%30.27 "Hg1 mi
6:20 PM46 °FFog.5 mph93%30.24 "Hg1 mi
5:50 PM46 °FFog.3 mph93%30.24 "Hg1 mi
5:20 PM46 °FFog.3 mph93%30.24 "Hg1 mi
4:50 PM46 °FFog.5 mph93%30.24 "Hg1 mi
4:20 PM46 °FFog.6 mph93%30.21 "Hg1 mi
3:50 PM46 °FFog.5 mph93%30.21 "Hg1 mi
3:20 PM46 °FFog.5 mph93%30.21 "Hg1 mi
2:50 PM46 °FFog.5 mph93%30.21 "Hg1 mi
2:20 PM46 °FFog.6 mph93%30.21 "Hg1 mi
1:50 PM46 °FFog.6 mph93%30.18 "Hg1 mi
1:20 PM46 °FFog.6 mph93%30.18 "Hg1 mi
12:50 PM46 °FDrizzle. Fog.5 mph93%30.18 "Hg1 mi
12:20 PM46 °FDrizzle. Fog.6 mph93%30.18 "Hg1 mi
11:50 AM48 °FDrizzle. Fog.5 mph94%30.15 "Hg1 mi
11:20 AM48 °FDrizzle. Fog.6 mph94%30.15 "Hg1 mi
10:50 AM48 °FFog.7 mph94%30.15 "Hg0 mi
10:20 AM48 °FFog.6 mph94%30.12 "Hg1 mi
9:50 AM48 °FFog.5 mph94%30.12 "Hg1 mi
9:20 AM48 °FFog.2 mph100%30.12 "Hg1 mi
8:50 AM48 °FFog.5 mph100%30.09 "Hg1 mi
8:20 AM48 °FFog.6 mph100%30.09 "Hg1 mi
7:50 AM50 °FFog.5 mph94%30.09 "Hg1 mi
7:20 AM50 °FFog.3 mph94%30.07 "Hg0 mi
6:50 AM50 °FFog.5 mph94%30.04 "Hg0 mi
6:20 AM50 °FFog.6 mph94%30.04 "Hg0 mi
Weather by CustomWeather, © 2016

See weather overviewHow to use our weather pages